Regional Weather Roundup
Issued by NWS

Home | Current Version | Previous Version | Text Only | Print | Product List | Glossary Off
Versions: 1 2 3 4 5 6 7 8 9 10 11 12 13 14 15 16 17 18 19 20 21 22 23 24 25 26 27 28 29 30 31 32 33 34 35 36 37 38 39 40 41 42 43 44 45 46 47 48 49 50

000
ASUS43 KFSD 221202
RWRSD

WEATHER ROUNDUP FOR SOUTH DAKOTA
NATIONAL WEATHER SERVICE SIOUX FALLS SD
700 AM CDT FRI MAY 22 2015

NOTE: "FAIR" INDICATES FEW OR NO CLOUDS BELOW 12,000 FEET WITH NO
SIGNIFICANT WEATHER AND/OR OBSTRUCTIONS TO VISIBILITY.


SDZ001>005-009-010-012>017-221300-
NORTHWEST AND NORTH CENTRAL SOUTH DAKOTA

CITY           SKY/WX    TMP DP  RH WIND       PRES   REMARKS
BUFFALO          N/A     47  32  56 E12       30.03F
FAITH            N/A     47  32  56 SE9       30.13R
MOBRIDGE       CLEAR     45  41  86 CALM      30.14R
$$

SDZ012>016-024>037-041>051-057-063-072>074-221300-
SOUTHWEST AND SOUTH CENTRAL SOUTH DAKOTA

CITY           SKY/WX    TMP DP  RH WIND       PRES   REMARKS
RAPID CTY ARPT CLOUDY    48  45  89 E5        30.09F
PIERRE         PTCLDY    42  37  82 NE5       30.15S
CUSTER         CLOUDY    44  39  82 SE5       30.10F
ELLSWORTH AFB  CLOUDY    49  46  88 SE6       30.09S
PHILIP         MOCLDY    42  37  82 CALM      30.13S
PINE RIDGE     CLOUDY    51  42  71 SE12      30.09F
WINNER         FAIR      45  37  73 CALM      30.16S
$$

SDZ004>011-016>023-039-040-221300-
NORTHEAST SOUTH DAKOTA

CITY           SKY/WX    TMP DP  RH WIND       PRES   REMARKS
ABERDEEN       CLEAR     49  39  68 E3        30.17S
WATERTOWN      CLEAR     42  37  82 N3        30.19R
BROOKINGS      CLEAR     43  37  81 CALM      30.21R
$$

SDZ017-020-022-023-036>040-048>070-221300-
SOUTHEAST SOUTH DAKOTA

CITY           SKY/WX    TMP DP  RH WIND       PRES   REMARKS
SIOUX FALLS    PTCLDY    44  41  89 CALM      30.19R
HURON          CLEAR     45  41  86 CALM      30.18R
CHAMBERLAIN    CLEAR     45  39  80 CALM      30.17S
MITCHELL       CLEAR     46  42  86 S3        30.19R
YANKTON        CLEAR     45  39  81 CALM      30.19S
$$

ABBREVIATIONS USED IN REMARKS
   TC - TEMPERATURE IN CELSIUS
  WCI - WIND CHILL INDEX
   HX - HEAT INDEX
  VSB - VISIBILITY



USA.gov is the U.S. government's official web portal to all federal, state and local government web resources and services.